Weather History for Breckenridge, TX

Change the Weather History Date:

Saturday, December 3, 2011

  Actual Average (KABI) Record (KABI)
Temperature  
Mean Temperature 51 °F 48 °F  
Max Temperature 60 °F 59 °F 87 °F (2005)
Min Temperature 42 °F 36 °F 16 °F (1897)
Degree Days  
Heating Degree Days 14 17  
Month to date heating degree days 51  
Since 1 July heating degree days 484  
Cooling Degree Days 0 0  
Month to date cooling degree days 0  
Year to date cooling degree days 2408  
Growing Degree Days 1 (Base 50)    
Moisture  
Dew Point 51 °F    
Average Humidity 87    
Maximum Humidity 100    
Minimum Humidity 67    
Precipitation  
Precipitation 0.13 in 0.04 in 1.43 in (1947)
Month to date precipitation 0.11  
Year to date precipitation 23.70  
Sea Level Pressure  
Sea Level Pressure 29.98 in    
Wind  
Wind Speed 9 mph (SSW)    
Max Wind Speed 23 mph    
Max Gust Speed 34 mph    
Visibility 9 miles    
Events Rain , Thunderstorm    
T = Trace of Precipitation, MM = Missing Value Source: NWS Daily Summary

Daily Weather History Graph

Daily Weather History Graph

Search for Another Location

Airport:

Trip Planner

Search our weather history database for the weather conditions in past years. The results will help you decide how hot, cold, wet, or windy it might be!

Date:

Astronomy

Dec. 03, 2011 Rise Set
Actual Time 7:21 AM CST 5:29 PM CST
Civil Twilight 6:54 AM CST 5:56 PM CST
Nautical Twilight 6:23 AM CST 6:26 PM CST
Astronomical Twilight 5:54 AM CST 6:56 PM CST
Moon 1:18 PM CST (12/3) 1:08 AM CST (12/3)
Length of Visible Light 11h 01m
Length of Day
10h 07m
Waxing Gibbous, 63% of the Moon is Illuminated
Dec 3
Waxing Gibbous
Dec 10
Full
Dec 17
Last Quarter
Dec 24
New
Jan 1
First Quarter

Hourly Weather History & Observations

Time (CST) Temp. Windchill Dew Point Humidity Pressure Visibility Wind Dir Wind Speed Gust Speed Precip Events Conditions
12:15 AM 42.8 °F - 42.8 °F 100% 30.06 in 5.0 mi Calm Calm - N/A   Overcast
12:35 AM 42.8 °F - 42.8 °F 100% 30.05 in 5.0 mi Calm Calm - N/A   Overcast
12:55 AM 44.6 °F - 44.6 °F 100% 30.03 in 5.0 mi Calm Calm - N/A   Overcast
1:15 AM 44.6 °F 43.1 °F 44.6 °F 100% 30.00 in 5.0 mi ESE 3.5 mph - N/A   Overcast
1:35 AM 46.4 °F 45.2 °F 46.4 °F 100% 29.99 in 7.0 mi South 3.5 mph - N/A   Overcast
1:55 AM 53.6 °F - 53.6 °F 100% 29.97 in 10.0 mi SSE 13.8 mph 19.6 mph N/A   Overcast
2:15 AM 55.4 °F - 53.6 °F 94% 29.97 in 10.0 mi SSE 13.8 mph 20.7 mph N/A   Overcast
2:35 AM 55.4 °F - 53.6 °F 94% 29.97 in 7.0 mi SSE 16.1 mph 23.0 mph N/A   Overcast
2:55 AM 55.4 °F - 53.6 °F 94% 29.97 in 10.0 mi SSE 18.4 mph 24.2 mph N/A   Overcast
3:15 AM 57.2 °F - 55.4 °F 94% 29.96 in 10.0 mi SSE 17.3 mph 24.2 mph N/A   Overcast
3:35 AM 57.2 °F - 55.4 °F 94% 29.96 in 10.0 mi SSE 19.6 mph 27.6 mph N/A   Overcast
3:55 AM 57.2 °F - 55.4 °F 94% 29.96 in 10.0 mi South 16.1 mph 28.8 mph N/A   Overcast
4:15 AM 57.2 °F - 55.4 °F 94% 29.95 in 10.0 mi SSE 19.6 mph 28.8 mph N/A   Overcast
4:35 AM 57.2 °F - 55.4 °F 94% 29.94 in 10.0 mi South 18.4 mph 34.5 mph N/A   Drizzle
4:55 AM 59.0 °F - 55.4 °F 88% 29.92 in 10.0 mi SSE 21.9 mph 33.4 mph N/A Rain Light Rain
5:15 AM 59.0 °F - 55.4 °F 88% 29.90 in 10.0 mi SSE 23.0 mph 34.5 mph 0.01 in Rain Rain
5:35 AM 59.0 °F - 55.4 °F 88% 29.90 in 10.0 mi SSE 17.3 mph 29.9 mph 0.01 in   Overcast
5:55 AM 59.0 °F - 55.4 °F 88% 29.89 in 10.0 mi SSE 19.6 mph 32.2 mph 0.01 in   Overcast
6:15 AM 59.0 °F - 55.4 °F 88% 29.87 in 10.0 mi SSE 23.0 mph 29.9 mph N/A   Overcast
6:35 AM 59.0 °F - 55.4 °F 88% 29.87 in 10.0 mi SSE 23.0 mph 29.9 mph N/A   Overcast
6:55 AM 59.0 °F - 55.4 °F 88% 29.88 in 10.0 mi SSE 19.6 mph 31.1 mph N/A   Overcast
7:15 AM 59.0 °F - 55.4 °F 88% 29.90 in 10.0 mi SSE 21.9 mph 29.9 mph N/A   Overcast
7:35 AM 59.0 °F - 57.2 °F 94% 29.91 in 10.0 mi SSE 17.3 mph 29.9 mph N/A   Overcast
7:55 AM 60.8 °F - 57.2 °F 88% 29.92 in 10.0 mi South 21.9 mph 31.1 mph N/A Thunderstorm Overcast
8:15 AM 60.8 °F - 57.2 °F 88% 29.93 in 10.0 mi South 13.8 mph 27.6 mph N/A   Overcast
8:55 AM 60.8 °F - 59.0 °F 94% 29.96 in 10.0 mi South 11.5 mph 17.3 mph N/A   Overcast
9:15 AM 60.8 °F - 59.0 °F 94% 29.96 in 10.0 mi South 12.7 mph 16.1 mph N/A   Overcast
9:35 AM 60.8 °F - 59.0 °F 94% 29.98 in 10.0 mi SSW 5.8 mph - N/A   Drizzle
9:55 AM 60.8 °F - 59.0 °F 94% 29.98 in 7.0 mi South 8.1 mph - 0.01 in Rain Rain
10:15 AM 59.0 °F - 57.2 °F 94% 30.00 in 5.0 mi NW 15.0 mph 19.6 mph 0.03 in Rain Light Rain
10:35 AM 51.8 °F - 50.0 °F 94% 30.02 in 4.0 mi NW 11.5 mph 18.4 mph 0.09 in Rain Light Rain
10:55 AM 50.0 °F - 50.0 °F 100% 30.01 in 10.0 mi WNW 5.8 mph - 0.10 in Rain Rain
11:15 AM 51.8 °F - 50.0 °F 94% 30.00 in 10.0 mi Calm Calm - N/A   Overcast
11:35 AM 51.8 °F - 51.8 °F 100% 30.00 in 10.0 mi West 4.6 mph - N/A   Overcast
11:55 AM 53.6 °F - 50.0 °F 88% 29.99 in 10.0 mi West 4.6 mph - 0.01 in   Overcast
12:15 PM 55.4 °F - 50.0 °F 82% 29.99 in 10.0 mi West 4.6 mph - N/A   Overcast
12:35 PM 53.6 °F - 51.8 °F 94% 29.99 in 10.0 mi WNW 6.9 mph - N/A   Overcast
12:55 PM 53.6 °F - 50.0 °F 88% 29.98 in 10.0 mi West 4.6 mph - N/A   Overcast
1:15 PM 53.6 °F - 50.0 °F 88% 29.97 in 10.0 mi WNW 3.5 mph - N/A   Overcast
1:35 PM 53.6 °F - 50.0 °F 88% 29.97 in 10.0 mi WNW 3.5 mph - N/A   Overcast
1:55 PM 55.4 °F - 48.2 °F 77% 29.97 in 10.0 mi North - - N/A   Overcast
2:15 PM 55.4 °F - 48.2 °F 77% 29.96 in 10.0 mi NW 5.8 mph - N/A   Overcast
2:35 PM 55.4 °F - 48.2 °F 77% 29.96 in 10.0 mi West 4.6 mph - N/A   Overcast
2:55 PM 57.2 °F - 48.2 °F 72% 29.96 in 10.0 mi North - - N/A   Overcast
3:15 PM 57.2 °F - 46.4 °F 67% 29.96 in 10.0 mi NW 5.8 mph - N/A   Overcast
3:35 PM 57.2 °F - 48.2 °F 72% 29.96 in 10.0 mi NNW 5.8 mph - N/A   Overcast
3:55 PM 57.2 °F - 46.4 °F 67% 29.97 in 10.0 mi Calm Calm - N/A   Overcast
4:15 PM 55.4 °F - 46.4 °F 72% 29.98 in 10.0 mi NNW 5.8 mph - N/A   Overcast
4:35 PM 57.2 °F - 46.4 °F 67% 29.99 in 10.0 mi NNW 4.6 mph - N/A   Scattered Clouds
4:55 PM 55.4 °F - 46.4 °F 72% 30.00 in 10.0 mi North 6.9 mph - N/A   Scattered Clouds
5:15 PM 55.4 °F - 46.4 °F 72% 30.02 in 10.0 mi NNW 3.5 mph - N/A   Mostly Cloudy
5:35 PM 53.6 °F - 46.4 °F 77% 30.02 in 10.0 mi North 3.5 mph - N/A   Scattered Clouds
5:55 PM 53.6 °F - 46.4 °F 77% 30.03 in 10.0 mi NE 3.5 mph - N/A   Mostly Cloudy
6:15 PM 53.6 °F - 46.4 °F 77% 30.04 in 10.0 mi Calm Calm - N/A   Overcast
6:35 PM 53.6 °F - 46.4 °F 77% 30.04 in 10.0 mi NE 4.6 mph - N/A   Mostly Cloudy
6:55 PM 53.6 °F - 46.4 °F 77% 30.05 in 10.0 mi Calm Calm - N/A   Scattered Clouds
7:15 PM 51.8 °F - 46.4 °F 82% 30.05 in 10.0 mi Calm Calm - N/A   Mostly Cloudy
7:35 PM 51.8 °F - 46.4 °F 82% 30.06 in 10.0 mi ESE 3.5 mph - N/A   Scattered Clouds
7:55 PM 51.8 °F - 46.4 °F 82% 30.07 in 10.0 mi Calm Calm - N/A   Mostly Cloudy
8:15 PM 51.8 °F - 46.4 °F 82% 30.08 in 10.0 mi Calm Calm - N/A Rain Light Rain
8:35 PM 51.8 °F - 50.0 °F 94% 30.08 in 10.0 mi NE 5.8 mph - N/A Rain Light Rain
8:55 PM 51.8 °F - 48.2 °F 88% 30.09 in 10.0 mi East 3.5 mph - N/A Rain Light Rain
9:15 PM 51.8 °F - 48.2 °F 88% 30.09 in 10.0 mi NNE 9.2 mph - N/A   Mostly Cloudy
9:35 PM 51.8 °F - 46.4 °F 82% 30.10 in 10.0 mi North 6.9 mph - N/A   Overcast
9:55 PM 51.8 °F - 42.8 °F 71% 30.12 in 10.0 mi North 17.3 mph 21.9 mph N/A   Overcast
10:15 PM 50.0 °F - 39.2 °F 66% 30.13 in 10.0 mi North 15.0 mph 23.0 mph N/A   Overcast
10:35 PM 46.4 °F 40.7 °F 37.4 °F 71% 30.13 in 10.0 mi North 12.7 mph 20.7 mph N/A   Overcast
10:55 PM 44.6 °F 37.2 °F 35.6 °F 71% 30.13 in 10.0 mi North 17.3 mph 23.0 mph N/A   Overcast
11:35 PM 42.8 °F 36.6 °F 33.8 °F 70% 30.14 in 10.0 mi NNW 11.5 mph 20.7 mph N/A   Overcast
11:55 PM 42.8 °F 36.2 °F 33.8 °F 70% 30.14 in 10.0 mi North 12.7 mph 19.6 mph N/A Rain Light Rain